FW4741 Weather Reports


time (UTC)temp
C
wind
direction
speed
KPH
gust
KPH
rain 1hr
cm
rain 24hr
cm
rain mn
cm
humidity
%
barometer
mb
20260903194104 23 77 3.2 9.7 0.00 0.00 0.00 59 1022.7
20260903193604 23 77 3.2 9.7 0.00 0.00 0.00 59 1022.7
20260903192605 23 77 3.2 9.7 0.00 0.00 0.00 60 1022.8
20260903192104 23 77 3.2 9.7 0.00 0.00 0.00 61 1022.9
20260903191604 23 77 3.2 9.7 0.00 0.00 0.00 63 1023.0
20260903191104 23 77 3.2 9.7 0.00 0.00 0.00 60 1023.0
20260903190603 23 77 3.2 9.7 0.00 0.00 0.00 62 1023.1
20260903190104 23 77 3.2 9.7 0.00 0.00 0.00 63 1023.2
20260903185104 22 77 3.2 9.7 0.00 0.00 0.00 64 1023.3
20260903184604 22 77 3.2 9.7 0.00 0.00 0.00 64 1023.3
20260903183603 22 77 3.2 9.7 0.00 0.00 0.00 65 1023.4
20260903182604 22 77 3.2 9.7 0.00 0.00 0.00 64 1023.5
20260903182103 22 77 3.2 9.7 0.00 0.00 0.00 65 1023.6
20260903181604 22 77 3.2 9.7 0.00 0.00 0.00 65 1023.6
20260903181104 22 77 3.2 9.7 0.00 0.00 0.00 65 1023.7
20260903180104 22 77 3.2 9.7 0.00 0.00 0.00 65 1023.8
20260903175604 22 77 3.2 9.7 0.00 0.00 0.00 64 1023.8
20260903175103 23 77 3.2 9.7 0.00 0.00 0.00 63 1023.9
20260903174604 23 77 3.2 9.7 0.00 0.00 0.00 60 1023.9
20260903173103 23 77 3.2 9.7 0.00 0.00 0.00 58 1023.9
20260903172603 23 77 3.2 9.7 0.00 0.00 0.00 60 1023.9
20260903172104 23 77 3.2 9.7 0.00 0.00 0.00 58 1024.0
20260903171604 23 77 3.2 9.7 0.00 0.00 0.00 57 1024.1
20260903171104 23 77 3.2 9.7 0.00 0.00 0.00 54 1024.1
20260903170604 24 77 3.2 9.7 0.00 0.00 0.00 54 1024.2
20260903170104 24 77 3.2 9.7 0.00 0.00 0.00 53 1024.2
20260903165604 24 77 3.2 9.7 0.00 0.00 0.00 53 1024.1
20260903164604 23 77 3.2 9.7 0.00 0.00 0.00 56 1024.1
20260903164104 23 77 3.2 9.7 0.00 0.00 0.00 57 1024.1
20260903163104 23 77 3.2 9.7 0.00 0.00 0.00 57 1024.1
20260903162104 23 77 3.2 9.7 0.00 0.00 0.00 62 1024.1
20260903161603 22 77 3.2 9.7 0.00 0.00 0.00 62 1024.1
20260903161103 22 77 3.2 9.7 0.00 0.00 0.00 65 1024.2
20260903160604 21 77 3.2 9.7 0.00 0.00 0.00 65 1024.2
20260903160103 21 77 3.2 9.7 0.00 0.00 0.00 66 1024.2
20260903155604 21 77 3.2 9.7 0.00 0.00 0.00 67 1024.2
20260903155104 21 77 3.2 9.7 0.00 0.00 0.00 68 1024.2
20260903154604 20 77 3.2 9.7 0.00 0.00 0.00 68 1024.2
20260903154104 20 77 3.2 9.7 0.00 0.00 0.00 69 1024.2
20260903153604 20 77 3.2 9.7 0.00 0.00 0.00 69 1024.2
20260903153104 20 77 3.2 9.7 0.00 0.00 0.00 71 1024.1
20260903152604 20 77 3.2 9.7 0.00 0.00 0.00 71 1024.1
20260903152104 19 77 3.2 9.7 0.00 0.00 0.00 71 1024.1
20260903151604 19 77 3.2 9.7 0.00 0.00 0.00 73 1024.1
20260903151105 18 77 3.2 9.7 0.00 0.00 0.00 73 1024.1
20260903150603 18 77 3.2 9.7 0.00 0.00 0.00 74 1024.1
20260903150104 18 77 3.2 9.7 0.00 0.00 0.00 75 1024.2
20260903145603 18 77 3.2 9.7 0.00 0.00 0.00 76 1024.3
20260903144604 18 77 3.2 9.7 0.00 0.00 0.00 77 1024.3
20260903144104 17 77 3.2 9.7 0.00 0.00 0.00 77 1024.3
20260903143603 17 77 3.2 9.7 0.00 0.00 0.00 78 1024.3
20260903143104 17 77 3.2 9.7 0.00 0.00 0.00 78 1024.4
20260903142604 17 77 3.2 9.7 0.00 0.00 0.00 78 1024.4
20260903142104 17 77 3.2 9.7 0.00 0.00 0.00 79 1024.4
20260903141604 17 77 3.2 9.7 0.00 0.00 0.00 79 1024.4
20260903140603 17 77 3.2 9.7 0.00 0.00 0.00 79 1024.4
20260903140104 17 77 3.2 9.7 0.00 0.00 0.00 79 1024.3
20260903135604 17 77 3.2 9.7 0.00 0.00 0.00 80 1024.3
20260903135103 17 77 3.2 9.7 0.00 0.00 0.00 80 1024.3
20260903134104 16 77 3.2 9.7 0.00 0.00 0.00 81 1024.3
20260903133604 16 77 3.2 9.7 0.00 0.00 0.00 81 1024.3
20260903133104 16 77 3.2 9.7 0.00 0.00 0.00 82 1024.3
20260903132604 16 77 3.2 9.7 0.00 0.00 0.00 82 1024.3
20260903132104 16 77 3.2 9.7 0.00 0.00 0.00 83 1024.3
20260903131604 16 77 3.2 9.7 0.00 0.00 0.00 82 1024.2
20260903131103 16 77 3.2 9.7 0.00 0.00 0.00 82 1024.2
20260903130603 16 77 3.2 9.7 0.00 0.00 0.00 82 1024.2
20260903130103 16 77 3.2 9.7 0.00 0.00 0.00 82 1024.2
20260903125603 16 77 3.2 9.7 0.00 0.00 0.00 82 1024.2
20260903125103 16 77 3.2 9.7 0.00 0.00 0.00 82 1024.1
20260903124604 16 77 3.2 9.7 0.00 0.00 0.00 82 1024.1
20260903124104 16 77 3.2 9.7 0.00 0.00 0.00 82 1024.0
20260903123604 16 77 3.2 9.7 0.00 0.00 0.00 81 1023.9
20260903123104 16 77 3.2 9.7 0.00 0.00 0.00 82 1023.9
20260903122603 16 77 3.2 9.7 0.00 0.00 0.00 82 1023.9
20260903122104 16 77 3.2 9.7 0.00 0.00 0.00 83 1023.8
20260903121604 16 77 3.2 9.7 0.00 0.00 0.00 83 1023.8
20260903121104 16 77 3.2 9.7 0.00 0.00 0.00 83 1023.8
20260903120604 16 77 3.2 9.7 0.00 0.00 0.00 83 1023.8
20260903120103 16 77 3.2 9.7 0.00 0.00 0.00 83 1023.8
20260903115604 16 77 3.2 9.7 0.00 0.00 0.00 83 1023.8
20260903115104 16 77 3.2 9.7 0.00 0.00 0.00 82 1023.7
20260903114604 16 77 3.2 9.7 0.00 0.00 0.00 81 1023.7
20260903114104 16 77 3.2 9.7 0.00 0.00 0.00 82 1023.7
20260903112604 16 77 3.2 9.7 0.00 0.00 0.00 82 1023.7
20260903112104 16 77 3.2 9.7 0.00 0.00 0.00 82 1023.7
20260903111604 16 77 3.2 9.7 0.00 0.00 0.00 81 1023.7
20260903111104 17 77 3.2 9.7 0.00 0.00 0.00 80 1023.7
20260903110604 17 77 3.2 9.7 0.00 0.00 0.00 80 1023.6
20260903110104 17 77 3.2 9.7 0.00 0.00 0.00 79 1023.6
20260903105604 17 77 3.2 9.7 0.00 0.00 0.00 78 1023.6
20260903105103 17 77 3.2 9.7 0.00 0.00 0.00 79 1023.6
20260903104604 16 77 3.2 9.7 0.00 0.00 0.00 79 1023.6
20260903104104 16 77 3.2 9.7 0.00 0.00 0.00 80 1023.7
20260903103104 16 77 3.2 9.7 0.00 0.00 0.00 80 1023.7
20260903102604 16 77 3.2 9.7 0.00 0.00 0.00 80 1023.7
20260903102104 16 77 3.2 9.7 0.00 0.00 0.00 80 1023.7
20260903101603 16 77 3.2 9.7 0.00 0.00 0.00 80 1023.7
20260903100603 16 77 3.2 9.7 0.00 0.00 0.00 80 1023.7
20260903100104 16 77 3.2 9.7 0.00 0.00 0.00 80 1023.8
20260903095603 16 77 3.2 9.7 0.00 0.00 0.00 80 1023.7
20260903094604 16 77 3.2 9.7 0.00 0.00 0.00 80 1023.8
20260903094104 16 77 3.2 9.7 0.00 0.00 0.00 80 1023.8
20260903093603 17 77 3.2 9.7 0.00 0.00 0.00 80 1023.8
20260903092604 17 77 3.2 9.7 0.00 0.00 0.00 80 1023.8
20260903092104 17 77 3.2 9.7 0.00 0.00 0.00 80 1023.9
20260903091604 17 77 3.2 9.7 0.00 0.00 0.00 80 1023.8
20260903091104 17 77 3.2 9.7 0.00 0.00 0.00 80 1023.8
20260903090604 17 77 3.2 9.7 0.00 0.00 0.00 80 1023.8
20260903090103 17 77 3.2 9.7 0.00 0.00 0.00 80 1023.8
20260903085604 17 77 3.2 9.7 0.00 0.00 0.00 80 1023.8
20260903085103 17 77 3.2 9.7 0.00 0.00 0.00 80 1023.8
20260903084104 17 77 3.2 9.7 0.00 0.00 0.00 80 1023.8
20260903083603 17 77 3.2 9.7 0.00 0.00 0.00 80 1023.9
20260903082604 17 77 3.2 9.7 0.00 0.00 0.00 80 1024.0
20260903082104 17 77 3.2 9.7 0.00 0.00 0.00 80 1024.1
20260903081604 17 77 3.2 9.7 0.00 0.00 0.00 80 1024.2
20260903080603 17 77 3.2 9.7 0.00 0.00 0.00 81 1024.2
20260903080104 17 77 3.2 9.7 0.00 0.00 0.00 81 1024.2
20260903075104 17 77 3.2 9.7 0.00 0.00 0.00 81 1024.2
20260903074604 17 77 3.2 9.7 0.00 0.00 0.00 81 1024.2
20260903073603 17 77 3.2 9.7 0.00 0.00 0.00 81 1024.2
20260903073104 17 77 3.2 9.7 0.00 0.00 0.00 81 1024.3
20260903072604 17 77 3.2 9.7 0.00 0.00 0.00 81 1024.4
20260903072104 17 77 3.2 9.7 0.00 0.00 0.00 81 1024.4
20260903071604 17 77 3.2 9.7 0.00 0.00 0.00 81 1024.4
20260903071104 17 77 3.2 9.7 0.00 0.00 0.00 81 1024.4
20260903070104 17 77 3.2 9.7 0.00 0.00 0.00 82 1024.5
20260903065604 17 77 3.2 9.7 0.00 0.00 0.00 82 1024.5
20260903064603 16 77 3.2 9.7 0.00 0.00 0.00 83 1024.6
20260903064103 16 77 3.2 9.7 0.00 0.00 0.00 83 1024.7
20260903063604 16 77 3.2 9.7 0.00 0.00 0.00 83 1024.7
20260903063104 16 77 3.2 9.7 0.00 0.00 0.00 85 1024.7
20260903062604 16 77 3.2 9.7 0.00 0.00 0.00 85 1024.7
20260903061604 16 77 3.2 9.7 0.00 0.00 0.00 84 1024.7
20260903061104 17 77 3.2 9.7 0.00 0.00 0.00 82 1024.6
20260903060604 17 77 3.2 9.7 0.00 0.00 0.00 81 1024.6
20260903060104 17 77 3.2 9.7 0.00 0.00 0.00 81 1024.5
20260903055604 17 77 3.2 9.7 0.00 0.00 0.00 81 1024.5
20260903055103 17 77 3.2 9.7 0.00 0.00 0.00 81 1024.5
20260903054603 17 77 3.2 9.7 0.00 0.00 0.00 81 1024.5
20260903054103 17 77 3.2 9.7 0.00 0.00 0.00 81 1024.5
20260903053604 17 77 3.2 9.7 0.00 0.00 0.00 82 1024.4
20260903053104 17 77 3.2 9.7 0.00 0.00 0.00 82 1024.4
20260903052604 17 77 3.2 9.7 0.00 0.00 0.00 82 1024.5
20260903052103 17 77 3.2 9.7 0.00 0.00 0.00 81 1024.5
20260903051603 17 77 3.2 9.7 0.00 0.00 0.00 80 1024.5
20260903051103 17 77 3.2 9.7 0.00 0.00 0.00 80 1024.5
20260903050603 17 77 3.2 9.7 0.00 0.00 0.00 80 1024.6
20260903045604 17 77 3.2 9.7 0.00 0.00 0.00 80 1024.6
20260903045104 17 77 3.2 9.7 0.00 0.00 0.00 80 1024.7
20260903044604 17 77 3.2 9.7 0.00 0.00 0.00 80 1024.6
20260903044104 17 77 3.2 9.7 0.00 0.00 0.00 80 1024.6
20260903043604 17 77 3.2 9.7 0.00 0.00 0.00 80 1024.6
20260903043104 17 77 3.2 9.7 0.00 0.00 0.00 80 1024.5
20260903042104 17 77 3.2 9.7 0.00 0.00 0.00 80 1024.5
20260903041604 17 77 3.2 9.7 0.00 0.00 0.00 80 1024.5
20260903041104 17 77 3.2 9.7 0.00 0.00 0.00 80 1024.5
20260903040603 17 77 3.2 9.7 0.00 0.03 0.00 80 1024.5
20260903040104 17 77 3.2 9.7 0.00 0.03 0.00 80 1024.5
20260903035104 17 77 3.2 9.7 0.00 0.00 0.00 80 1024.4
20260903034604 17 77 3.2 9.7 0.00 0.00 0.00 80 1024.4
20260903033604 17 77 3.2 9.7 0.00 0.00 0.00 80 1024.3
20260903033103 17 77 3.2 9.7 0.00 0.00 0.00 80 1024.3
20260903032603 17 77 3.2 9.7 0.00 0.00 0.00 80 1024.2
20260903032104 17 77 3.2 9.7 0.00 0.00 0.00 80 1024.1
20260903031604 17 77 3.2 9.7 0.00 0.00 0.00 80 1024.1
20260903031104 17 77 3.2 9.7 0.00 0.00 0.00 80 1024.1
20260903030104 18 77 3.2 9.7 0.00 0.00 0.00 80 1024.0
20260903025604 18 77 3.2 9.7 0.00 0.00 0.00 80 1023.9
20260903025104 18 77 3.2 9.7 0.00 0.00 0.00 80 1023.9
20260903024604 18 77 3.2 9.7 0.00 0.00 0.00 80 1023.9
20260903023604 18 77 3.2 9.7 0.00 0.00 0.00 80 1023.8
20260903023103 18 77 3.2 9.7 0.00 0.00 0.00 80 1023.8
20260903022604 18 77 3.2 9.7 0.00 0.00 0.00 81 1023.8
20260903022104 18 77 3.2 9.7 0.00 0.00 0.00 81 1023.8
20260903021103 18 77 3.2 9.7 0.00 0.00 0.00 81 1023.7
20260903020104 18 77 3.2 9.7 0.00 0.00 0.00 81 1023.6
20260903015103 18 77 3.2 9.7 0.00 0.00 0.00 81 1023.5
20260903014104 18 77 3.2 9.7 0.00 0.00 0.00 81 1023.4
20260903012604 18 77 3.2 9.7 0.00 0.00 0.00 82 1023.3
20260903012104 18 77 3.2 9.7 0.00 0.00 0.00 82 1023.2
20260903011104 18 77 3.2 9.7 0.00 0.00 0.00 82 1023.2
20260903010603 18 77 3.2 9.7 0.00 0.00 0.00 81 1023.2
20260903005603 18 77 3.2 9.7 0.00 0.00 0.00 80 1023.1
20260903005103 18 77 3.2 9.7 0.00 0.00 0.00 80 1023.0
20260903004104 18 77 3.2 9.7 0.00 0.00 0.00 79 1022.9
20260903003603 19 77 3.2 9.7 0.00 0.00 0.00 79 1022.8
20260903003103 19 77 3.2 9.7 0.00 0.00 0.00 78 1022.8
20260903001604 19 77 3.2 9.7 0.00 0.00 0.00 76 1023.0
20260903001104 19 77 3.2 9.7 0.00 0.00 0.00 77 1023.0
20260903000604 19 77 3.2 9.7 0.00 0.00 0.00 77 1023.1
20260903000104 19 77 3.2 9.7 0.00 0.00 0.00 77 1023.2
20260902235104 19 77 3.2 9.7 0.00 0.00 0.00 76 1023.3
20260902234603 19 77 3.2 9.7 0.00 0.00 0.00 76 1023.3
20260902234104 19 77 3.2 9.7 0.00 0.00 0.00 77 1023.3
20260902233603 19 77 3.2 9.7 0.00 0.00 0.00 77 1023.4
20260902233103 20 77 3.2 9.7 0.00 0.00 0.00 77 1023.5
20260902232604 20 77 3.2 9.7 0.00 0.00 0.00 76 1023.5
20260902232104 20 77 3.2 9.7 0.00 0.00 0.00 76 1023.5
20260902231604 20 77 3.2 9.7 0.00 0.00 0.00 77 1023.5
20260902231103 20 77 3.2 9.7 0.00 0.00 0.00 78 1023.5
20260902230603 20 77 3.2 9.7 0.00 0.00 0.00 78 1023.5
20260902230104 20 77 3.2 9.7 0.00 0.00 0.00 77 1023.5
20260902225604 20 77 3.2 9.7 0.00 0.00 0.00 77 1023.5
20260902225104 20 77 3.2 9.7 0.00 0.00 0.00 76 1023.5
20260902224604 20 77 3.2 9.7 0.00 0.00 0.00 74 1023.5
20260902224104 20 77 3.2 9.7 0.00 0.00 0.00 74 1023.5
20260902223604 20 77 3.2 9.7 0.00 0.00 0.00 74 1023.5
20260902222603 20 77 3.2 9.7 0.00 0.00 0.00 74 1023.5
20260902222104 20 77 3.2 9.7 0.00 0.00 0.00 74 1023.5
20260902221604 20 77 3.2 9.7 0.00 0.00 0.00 74 1023.5
20260902221103 20 77 3.2 9.7 0.00 0.00 0.00 74 1023.5
20260902220604 20 77 3.2 9.7 0.00 0.00 0.00 75 1023.6
20260902215604 21 77 3.2 9.7 0.00 0.00 0.00 76 1023.6
20260902215104 21 77 3.2 9.7 0.00 0.00 0.00 76 1023.6
20260902214104 21 77 3.2 9.7 0.00 0.00 0.00 68 1023.5
20260902213606 21 77 3.2 9.7 0.00 0.00 0.00 73 1023.3
20260902212102 21 77 3.2 9.7 0.00 0.00 0.00 76 1023.5
20260902211603 20 77 3.2 9.7 0.00 0.00 0.00 76 1023.5
20260902211103 20 77 3.2 9.7 0.00 0.00 0.00 77 1023.6
20260902210602 20 77 3.2 9.7 0.00 0.00 0.00 77 1023.7
20260902205603 20 77 3.2 9.7 0.00 0.00 0.00 78 1023.8
20260902205103 20 77 3.2 9.7 0.00 0.00 0.00 78 1023.8
20260902204102 20 77 3.2 9.7 0.00 0.00 0.00 78 1024.0
20260902203602 20 77 3.2 9.7 0.00 0.00 0.00 78 1024.0
20260902203103 20 77 3.2 9.7 0.00 0.00 0.00 78 1024.0
20260902201603 21 77 3.2 9.7 0.00 0.00 0.00 75 1024.1
20260902201102 21 77 3.2 9.7 0.00 0.00 0.00 73 1024.2
20260902200603 21 77 3.2 9.7 0.00 0.00 0.00 73 1024.2
20260902195102 21 77 3.2 9.7 0.00 0.00 0.00 74 1024.3
20260902194603 21 77 3.2 9.7 0.00 0.00 0.00 74 1024.4